Date String (YYYY-MM-DD hh:mm:ss) UTC,Instrument flags,absolute air pressure of the measurement (hPa),sample flow rate (lpm),inlet stack bypass flow (lpm),air temperature of the measurement (°C),ambient temperature measured by the external sensor (°C),aerosol sample conditioner tube jacket temperature (°C),OPC LED temperature (°C),internal box temperature (°C),relative humidity of the measurement (%),span deviation,mass concentration of particles derived from Lorenz-Mie calculation of OPC scattering (μg/m³),mass concentration of particles derived from Lorenz-Mie calculation of OPC scattering (μg/m³),mass concentration of particles derived from Lorenz-Mie calculation of OPC scattering (μg/m³)
DateTimeUTC,F1_M11,P_M11,Q1_M11,Q2_M11,T1_M11,T2_M11,T3_M11,T4_M11,T5_M11,U1_M11,ZSPAN_M11,X2_M11,X0_M11,X1_M11
2024-06-09 10:00:00,SystemResetWarning,0830.0,5.00,000.00,030.5,029.7,000.0,039.0,032.2,023.9,0000.0,0004.02,0008.74,0003.52
2024-06-09 10:01:00,SystemResetWarning,0830.0,5.00,000.00,030.5,029.7,000.0,039.0,032.2,023.9,0000.0,0004.00,0008.48,0003.52
2024-06-09 10:02:00,SystemResetWarning,0830.0,5.00,000.00,030.5,029.7,000.0,039.0,032.2,023.8,0000.0,0004.03,0008.49,0003.51
2024-06-09 10:03:00,SystemResetWarning,0830.0,5.00,000.00,030.5,029.7,000.0,039.0,032.2,023.9,0000.0,0004.03,0008.81,0003.50
2024-06-09 10:04:00,SystemResetWarning,0830.1,5.00,000.00,030.5,029.7,000.0,039.0,032.2,023.9,0000.0,0003.99,0008.71,0003.48
2024-06-09 10:05:00,SystemResetWarning,0830.0,5.00,000.00,030.5,029.8,000.0,039.0,032.2,023.9,0000.0,0003.95,0008.63,0003.46
2024-06-09 10:06:00,SystemResetWarning,0830.0,5.00,000.00,030.5,029.7,000.0,039.0,032.2,023.9,0000.0,0003.94,0008.63,0003.45
2024-06-09 10:07:00,SystemResetWarning,0830.1,5.00,000.00,030.5,029.7,000.0,039.0,032.2,023.9,0000.0,0003.92,0008.42,0003.44
2024-06-09 10:08:00,SystemResetWarning,0830.0,5.00,000.00,030.5,029.7,000.0,039.0,032.2,024.0,0000.0,0003.94,0008.50,0003.44
2024-06-09 10:09:00,SystemResetWarning,0830.0,5.00,000.00,030.5,029.7,000.0,038.9,032.2,024.0,0000.0,0003.92,0008.39,0003.43
2024-06-09 10:10:00,SystemResetWarning,0830.0,5.00,000.00,030.5,029.8,000.0,038.9,032.2,024.0,0000.0,0003.92,0007.93,0003.43
2024-06-09 10:11:00,SystemResetWarning,0830.1,5.00,000.00,030.5,029.8,000.0,039.0,032.2,024.1,0000.0,0003.96,0008.09,0003.43
2024-06-09 10:12:00,SystemResetWarning,0830.1,5.00,000.00,030.5,029.8,000.0,039.0,032.2,023.9,0000.0,0003.98,0008.12,0003.42
2024-06-09 10:13:00,SystemResetWarning,0830.1,5.00,000.00,030.5,029.8,000.0,039.0,032.2,023.9,0000.0,0003.97,0008.21,0003.41
2024-06-09 10:14:00,SystemResetWarning,0830.2,5.00,000.00,030.5,029.8,000.0,039.0,032.2,023.9,0000.0,0003.98,0007.86,0003.40
2024-06-09 10:15:00,SystemResetWarning,0830.3,5.00,000.00,030.5,029.8,000.0,039.0,032.2,024.8,0000.0,0004.00,0007.91,0003.40
2024-06-09 10:16:00,SystemResetWarning,0830.2,5.00,000.00,030.5,029.8,000.0,039.0,032.2,025.4,0000.0,0004.05,0007.99,0003.43
2024-06-09 10:17:00,SystemResetWarning,0830.2,5.00,000.00,030.5,029.8,000.0,039.0,032.2,025.2,0000.0,0004.10,0007.74,0003.47
2024-06-09 10:18:00,SystemResetWarning,0830.2,5.00,000.00,030.5,029.8,000.0,039.0,032.2,025.9,0000.0,0004.16,0007.74,0003.50
2024-06-09 10:19:00,SystemResetWarning,0830.2,5.00,000.00,030.5,029.8,000.0,039.0,032.3,026.1,0000.0,0004.19,0007.78,0003.56
2024-06-09 10:20:00,SystemResetWarning,0830.2,5.00,000.00,030.5,029.8,000.0,039.0,032.3,026.1,0000.0,0004.25,0008.06,0003.63
2024-06-09 10:21:00,SystemResetWarning,0830.2,4.99,000.00,030.5,029.8,000.0,039.0,032.3,026.0,0000.0,0004.29,0008.59,0003.68
2024-06-09 10:22:00,SystemResetWarning,0830.3,5.01,000.00,030.6,029.8,000.0,039.0,032.3,026.0,0000.0,0004.31,0008.66,0003.73
2024-06-09 10:23:00,SystemResetWarning,0830.3,5.01,000.00,030.6,029.8,000.0,039.0,032.3,026.1,0000.0,0004.34,0008.79,0003.79
2024-06-09 10:24:00,SystemResetWarning,0830.2,5.00,000.00,030.6,029.8,000.0,039.0,032.3,026.3,0000.0,0004.40,0008.86,0003.86
2024-06-09 10:25:00,SystemResetWarning,0830.3,4.99,000.00,030.6,029.8,000.0,039.0,032.3,026.6,0000.0,0004.46,0008.96,0003.94
2024-06-09 10:26:00,SystemResetWarning,0830.3,4.99,000.00,030.6,029.8,000.0,039.0,032.3,026.7,0000.0,0004.55,0009.18,0004.02
2024-06-09 10:27:00,SystemResetWarning,0830.3,5.00,000.00,030.6,029.8,000.0,039.0,032.3,026.7,0000.0,0004.62,0009.30,0004.08
2024-06-09 10:28:00,SystemResetWarning,0830.3,5.01,000.00,030.6,029.8,000.0,039.0,032.3,026.8,0000.0,0004.67,0009.79,0004.13
2024-06-09 10:29:00,SystemResetWarning,0830.4,5.01,000.00,030.6,029.8,000.0,039.0,032.3,026.9,0000.0,0004.73,0010.50,0004.20
2024-06-09 10:30:00,SystemResetWarning,0830.4,5.00,000.00,030.6,029.8,000.0,039.0,032.3,026.9,0000.0,0004.79,0010.66,0004.24
2024-06-09 10:31:00,SystemResetWarning,0830.4,5.00,000.00,030.6,029.8,000.0,039.0,032.3,026.9,0000.0,0004.86,0010.53,0004.27
2024-06-09 10:32:00,SystemResetWarning,0830.5,4.98,000.00,030.6,029.8,000.0,039.0,032.3,027.0,0000.0,0005.00,0010.61,0004.31
2024-06-09 10:33:00,SystemResetWarning,0830.5,5.01,000.00,030.6,029.8,000.0,039.0,032.3,027.1,0000.0,0005.11,0010.61,0004.36
2024-06-09 10:34:00,SystemResetWarning,0830.6,5.01,000.00,030.6,029.8,000.0,039.1,032.3,027.1,0000.0,0005.21,0010.72,0004.41
2024-06-09 10:35:00,SystemResetWarning,0830.5,5.00,000.00,030.6,029.8,000.0,039.1,032.3,027.0,0000.0,0005.32,0010.75,0004.46
2024-06-09 10:36:00,SystemResetWarning,0830.6,5.00,000.00,030.6,029.8,000.0,039.1,032.3,026.9,0000.0,0005.38,0010.96,0004.50
2024-06-09 10:37:00,SystemResetWarning,0830.7,5.00,000.00,030.6,029.8,000.0,039.1,032.3,026.9,0000.0,0005.47,0011.51,0004.53
2024-06-09 10:38:00,SystemResetWarning,0830.7,4.99,000.00,030.6,029.8,000.0,039.1,032.3,026.9,0000.0,0005.53,0012.62,0004.56
2024-06-09 10:39:00,SystemResetWarning,0830.8,5.02,000.00,030.6,029.8,000.0,039.1,032.3,026.9,0000.0,0005.60,0012.39,0004.58
2024-06-09 10:40:00,SystemResetWarning,0830.8,5.01,000.00,030.6,029.9,000.0,039.1,032.3,027.0,0000.0,0005.67,0012.12,0004.59
2024-06-09 10:41:00,SystemResetWarning,0830.8,4.99,000.00,030.6,029.9,000.0,039.1,032.3,027.1,0000.0,0005.72,0012.27,0004.63
2024-06-09 10:42:00,SystemResetWarning,0830.8,4.99,000.00,030.6,029.9,000.0,039.1,032.3,027.2,0000.0,0005.77,0012.36,0004.65
2024-06-09 10:43:00,SystemResetWarning,0830.8,5.00,000.00,030.6,029.8,000.0,039.1,032.3,027.3,0000.0,0005.73,0012.52,0004.68
2024-06-09 10:44:00,SystemResetWarning,0830.9,5.00,000.00,030.6,029.8,000.0,039.1,032.3,027.4,0000.0,0005.73,0012.74,0004.71
2024-06-09 10:45:00,SystemResetWarning,0830.8,5.00,000.00,030.6,029.8,000.0,039.1,032.4,027.5,0000.0,0005.80,0013.89,0004.73
2024-06-09 10:46:00,SystemResetWarning,0830.9,5.00,000.00,030.6,029.8,000.0,039.1,032.3,027.7,0000.0,0005.77,0014.09,0004.74
2024-06-09 10:47:00,SystemResetWarning,0830.9,4.99,000.00,030.6,029.8,000.0,039.1,032.3,028.2,0000.0,0005.78,0014.63,0004.76
2024-06-09 10:48:00,SystemResetWarning,0830.9,5.00,000.00,030.6,029.8,000.0,039.1,032.3,027.9,0000.0,0005.75,0014.09,0004.78
2024-06-09 10:49:00,SystemResetWarning,0830.9,5.00,000.00,030.6,029.8,000.0,039.1,032.3,027.9,0000.0,0005.76,0013.09,0004.80
2024-06-09 10:50:00,SystemResetWarning,0830.9,5.00,000.00,030.6,029.8,000.0,039.1,032.3,027.8,0000.0,0005.75,0013.04,0004.81
2024-06-09 10:51:00,SystemResetWarning,0830.9,4.99,000.00,030.6,029.8,000.0,039.1,032.3,027.9,0000.0,0005.69,0012.79,0004.81
2024-06-09 10:52:00,SystemResetWarning,0830.9,5.00,000.00,030.6,029.8,000.0,039.1,032.3,027.9,0000.0,0005.67,0012.68,0004.80
2024-06-09 10:53:00,SystemResetWarning,0830.9,5.00,000.00,030.6,029.8,000.0,039.1,032.3,028.0,0000.0,0005.62,0012.79,0004.79
2024-06-09 10:54:00,SystemResetWarning,0830.9,5.00,000.00,030.6,029.8,000.0,039.1,032.3,028.1,0000.0,0005.60,0012.67,0004.76
2024-06-09 10:55:00,SystemResetWarning,0831.0,5.01,000.00,030.6,029.8,000.0,039.1,032.3,028.1,0000.0,0005.59,0012.47,0004.74
2024-06-09 10:56:00,SystemResetWarning,0831.1,5.00,000.00,030.6,029.8,000.0,039.1,032.3,028.1,0000.0,0005.50,0011.40,0004.70
2024-06-09 10:57:00,SystemResetWarning,0831.1,5.00,000.00,030.6,029.8,000.0,039.1,032.4,028.1,0000.0,0005.46,0010.86,0004.68
2024-06-09 10:58:00,SystemResetWarning,0831.1,5.00,000.00,030.6,029.8,000.0,039.1,032.3,028.1,0000.0,0005.46,0010.64,0004.66
2024-06-09 10:59:00,SystemResetWarning,0831.1,5.00,000.00,030.6,029.8,000.0,039.1,032.3,028.1,0000.0,0005.47,0011.01,0004.66
